TimeEDT,TemperatureF,Dew PointF,Humidity,Sea Level PressureIn,VisibilityMPH,Wind Direction,Wind SpeedMPH,Gust SpeedMPH,PrecipitationIn,Events,Conditions,WindDirDegrees,DateUTC
12:15 AM,69.8,62.6,78,30.28,7.0,WSW,5.8,-,N/A,,Scattered Clouds,240,2013-07-10 04:15:00
12:35 AM,68.0,62.6,83,30.28,7.0,WSW,6.9,-,N/A,,Scattered Clouds,240,2013-07-10 04:35:00
12:55 AM,69.8,62.6,78,30.28,7.0,WSW,6.9,-,N/A,,Scattered Clouds,250,2013-07-10 04:55:00
1:15 AM,68.0,62.6,83,30.27,10.0,WSW,8.1,-,N/A,,Clear,250,2013-07-10 05:15:00
1:35 AM,68.0,64.4,88,30.26,10.0,WSW,8.1,-,N/A,,Clear,240,2013-07-10 05:35:00
1:55 AM,68.0,62.6,83,30.25,10.0,WSW,9.2,-,N/A,,Clear,240,2013-07-10 05:55:00
2:15 AM,68.0,62.6,83,30.25,7.0,WSW,8.1,-,N/A,,Clear,240,2013-07-10 06:15:00
2:35 AM,68.0,62.6,83,30.25,7.0,WSW,9.2,-,N/A,,Clear,250,2013-07-10 06:35:00
2:55 AM,66.2,62.6,88,30.23,7.0,WSW,9.2,-,N/A,,Clear,250,2013-07-10 06:55:00
3:15 AM,66.2,62.6,88,30.23,7.0,WSW,8.1,-,N/A,,Clear,250,2013-07-10 07:15:00
3:55 AM,66.2,64.4,94,30.23,10.0,West,9.2,-,N/A,,Mostly Cloudy,260,2013-07-10 07:55:00
4:15 AM,68.0,64.4,88,30.23,10.0,West,10.4,-,N/A,,Overcast,260,2013-07-10 08:15:00
4:35 AM,68.0,64.4,88,30.22,10.0,West,8.1,-,N/A,,Overcast,260,2013-07-10 08:35:00
4:55 AM,66.2,64.4,94,30.23,10.0,West,8.1,-,N/A,,Mostly Cloudy,270,2013-07-10 08:55:00
5:15 AM,66.2,64.4,94,30.22,10.0,West,6.9,-,N/A,,Mostly Cloudy,270,2013-07-10 09:15:00
5:35 AM,66.2,64.4,94,30.22,10.0,WSW,6.9,-,N/A,,Mostly Cloudy,250,2013-07-10 09:35:00
5:55 AM,66.2,64.4,94,30.22,10.0,West,6.9,-,N/A,,Overcast,260,2013-07-10 09:55:00
6:15 AM,66.2,66.2,100,30.22,7.0,West,6.9,-,N/A,,Overcast,270,2013-07-10 10:15:00
6:35 AM,66.2,64.4,94,30.23,7.0,West,10.4,-,N/A,,Overcast,270,2013-07-10 10:35:00
6:55 AM,66.2,66.2,100,30.23,10.0,West,10.4,-,N/A,,Mostly Cloudy,270,2013-07-10 10:55:00
7:15 AM,66.2,66.2,100,30.22,10.0,West,10.4,-,N/A,,Mostly Cloudy,270,2013-07-10 11:15:00
7:35 AM,66.2,66.2,100,30.22,7.0,West,9.2,-,N/A,,Overcast,270,2013-07-10 11:35:00
7:55 AM,68.0,64.4,88,30.22,7.0,West,11.5,-,N/A,,Scattered Clouds,270,2013-07-10 11:55:00
8:15 AM,66.2,64.4,94,30.23,10.0,West,10.4,-,N/A,,Scattered Clouds,270,2013-07-10 12:15:00
8:35 AM,68.0,64.4,88,30.23,10.0,West,11.5,-,N/A,,Mostly Cloudy,270,2013-07-10 12:35:00
8:55 AM,69.8,64.4,83,30.24,10.0,West,9.2,-,N/A,,Mostly Cloudy,270,2013-07-10 12:55:00
9:15 AM,69.8,66.2,88,30.24,10.0,West,12.7,-,N/A,,Scattered Clouds,260,2013-07-10 13:15:00
9:35 AM,69.8,66.2,88,30.24,7.0,West,10.4,-,N/A,,Scattered Clouds,270,2013-07-10 13:35:00
9:55 AM,71.6,66.2,83,30.23,10.0,West,11.5,-,N/A,,Scattered Clouds,270,2013-07-10 13:55:00
10:15 AM,73.4,68.0,83,30.23,10.0,West,11.5,-,N/A,,Scattered Clouds,260,2013-07-10 14:15:00
10:35 AM,73.4,68.0,83,30.23,10.0,West,10.4,-,N/A,,Scattered Clouds,270,2013-07-10 14:35:00
10:55 AM,71.6,68.0,88,30.24,7.0,West,9.2,-,N/A,,Scattered Clouds,280,2013-07-10 14:55:00
11:15 AM,71.6,66.2,83,30.24,7.0,West,8.1,16.1,N/A,,Scattered Clouds,270,2013-07-10 15:15:00
11:35 AM,73.4,68.0,83,30.24,10.0,West,5.8,-,N/A,,Scattered Clouds,270,2013-07-10 15:35:00
11:55 AM,73.4,68.0,83,30.24,10.0,WNW,5.8,-,N/A,,Scattered Clouds,290,2013-07-10 15:55:00
12:15 PM,75.2,68.0,78,30.23,10.0,West,5.8,-,N/A,Thunderstorm,Thunderstorm,280,2013-07-10 16:15:00
12:35 PM,75.2,66.2,73,30.22,5.0,WSW,4.6,-,N/A,,Haze,240,2013-07-10 16:35:00
12:55 PM,75.2,66.2,73,30.23,7.0,WSW,5.8,-,N/A,Thunderstorm,Scattered Clouds,240,2013-07-10 16:55:00
1:15 PM,73.4,68.0,83,30.22,10.0,NNW,5.8,-,N/A,Thunderstorm,Thunderstorm,340,2013-07-10 17:15:00
1:35 PM,64.4,64.4,100,30.21,0.5,West,19.6,27.6,0.21,Rain-Thunderstorm,Heavy Thunderstorms and Rain,280,2013-07-10 17:35:00
1:55 PM,-9999,-9999,N/A,30.21,-9999.0,North,-9999.0,-,N/A,,Unknown,0,2013-07-10 17:55:00
2:15 PM,-9999,-9999,N/A,30.21,-9999.0,North,-9999.0,-,N/A,,Unknown,0,2013-07-10 18:15:00
2:35 PM,-9999,-9999,N/A,30.21,-9999.0,North,-9999.0,-,N/A,,Unknown,0,2013-07-10 18:35:00
2:55 PM,-9999,-9999,N/A,30.20,-9999.0,North,-9999.0,-,N/A,,Unknown,0,2013-07-10 18:55:00
3:15 PM,-9999,-9999,N/A,30.20,-9999.0,North,-9999.0,-,N/A,,Unknown,0,2013-07-10 19:15:00
3:35 PM,-9999,-9999,N/A,30.18,-9999.0,North,-9999.0,-,N/A,,Unknown,0,2013-07-10 19:35:00
3:55 PM,-9999,-9999,N/A,30.17,-9999.0,North,-9999.0,-,N/A,,Unknown,0,2013-07-10 19:55:00
4:15 PM,-9999,-9999,N/A,30.18,-9999.0,North,-9999.0,-,N/A,,Unknown,0,2013-07-10 20:15:00
4:35 PM,-9999,-9999,N/A,30.18,-9999.0,North,-9999.0,-,N/A,,Unknown,0,2013-07-10 20:35:00
4:55 PM,-9999,-9999,N/A,30.16,-9999.0,North,-9999.0,-,N/A,,Unknown,0,2013-07-10 20:55:00
5:15 PM,-9999,-9999,N/A,30.15,-9999.0,North,-9999.0,-,N/A,,Unknown,0,2013-07-10 21:15:00
5:35 PM,-9999,-9999,N/A,30.14,-9999.0,North,-9999.0,-,N/A,,Unknown,0,2013-07-10 21:35:00
5:55 PM,68.0,66.2,94,30.15,10.0,WSW,11.5,-,N/A,,Unknown,250,2013-07-10 21:55:00
6:15 PM,66.2,66.2,100,30.14,5.0,WSW,3.5,-,N/A,Rain,Rain,240,2013-07-10 22:15:00
6:35 PM,66.2,66.2,100,30.15,0.2,WNW,5.8,-,0.01,Rain,Light Rain,290,2013-07-10 22:35:00
6:55 PM,66.2,66.2,100,30.15,0.2,WSW,10.4,-,0.01,Rain-Thunderstorm,Heavy Thunderstorms and Rain,250,2013-07-10 22:55:00
7:15 PM,64.4,64.4,100,30.15,0.2,WSW,10.4,-,0.02,Rain,Light Rain,250,2013-07-10 23:15:00
7:35 PM,64.4,64.4,100,30.16,0.2,WSW,10.4,-,0.02,,Drizzle,240,2013-07-10 23:35:00
7:55 PM,64.4,64.4,100,30.16,10.0,WSW,8.1,-,N/A,,Light Drizzle,240,2013-07-10 23:55:00
8:15 PM,64.4,64.4,100,30.16,10.0,SSW,3.5,-,0.01,Rain,Rain,210,2013-07-11 00:15:00
8:35 PM,64.4,64.4,100,30.16,10.0,SSW,4.6,-,0.01,,Drizzle,200,2013-07-11 00:35:00
8:55 PM,64.4,64.4,100,30.16,0.2,SSW,5.8,-,0.01,,Light Drizzle,210,2013-07-11 00:55:00
9:15 PM,64.4,64.4,100,30.15,10.0,SW,5.8,-,0.01,,Scattered Clouds,220,2013-07-11 01:15:00
9:35 PM,64.4,64.4,100,30.15,10.0,WSW,6.9,-,0.01,,Clear,240,2013-07-11 01:35:00
9:55 PM,64.4,64.4,100,30.15,10.0,WSW,9.2,-,N/A,,Scattered Clouds,240,2013-07-11 01:55:00
10:15 PM,64.4,64.4,100,30.14,7.0,WSW,9.2,-,N/A,,Scattered Clouds,250,2013-07-11 02:15:00
10:35 PM,64.4,64.4,100,30.14,7.0,WSW,11.5,-,N/A,,Clear,250,2013-07-11 02:35:00
10:55 PM,64.4,64.4,100,30.14,10.0,West,11.5,-,N/A,,Scattered Clouds,260,2013-07-11 02:55:00
11:15 PM,64.4,64.4,100,30.14,0.2,West,11.5,-,N/A,Fog,Fog,280,2013-07-11 03:15:00
11:35 PM,64.4,64.4,100,30.14,0.2,WNW,9.2,-,N/A,Fog,Fog,290,2013-07-11 03:35:00
11:55 PM,64.4,64.4,100,30.13,0.8,WNW,9.2,-,N/A,,Overcast,300,2013-07-11 03:55:00